EW3259 Weather Reports


Display with metric or nautical units.
time (UTC)temp
F
wind
direction
speed
MPH
gust
MPH
rain 1hr
in
rain 24hr
in
rain mn
in
humidity
%
barometer
mb
20260906043935 76 0 0.0 0.0 0.00 0.00 0.00 91 979.2
20260906043036 76 0 0.0 0.0 0.00 0.00 0.00 91 979.4
20260906042135 76 0 0.0 0.0 0.00 0.00 0.00 91 979.3
20260906041235 77 0 0.0 0.0 0.00 0.00 0.00 90 979.5
20260906040335 77 0 0.0 0.0 0.00 0.00 0.00 90 979.4
20260906035435 77 0 0.0 0.0 0.00 0.00 0.00 89 979.3
20260906034536 77 0 0.0 0.0 0.00 0.00 0.00 89 979.3
20260906033635 77 1 0.0 2.0 0.00 0.00 0.00 89 979.4
20260906032735 77 1 1.0 2.0 0.00 0.00 0.00 88 979.4
20260906031835 77 1 0.0 1.0 0.00 0.00 0.00 88 979.4
20260906030935 77 1 0.0 2.0 0.00 0.00 0.00 88 979.2
20260906030035 78 344 0.0 4.0 0.00 0.00 0.00 88 979.3
20260906025135 77 135 0.0 1.0 0.00 0.00 0.00 87 978.8
20260906024235 78 135 0.0 1.0 0.00 0.00 0.00 86 978.7
20260906023335 78 0 0.0 0.0 0.00 0.00 0.00 85 978.6
20260906022435 78 0 0.0 0.0 0.00 0.00 0.00 84 978.6
20260906021535 79 0 0.0 0.0 0.00 0.00 0.00 82 978.5
20260906020634 79 0 0.0 0.0 0.00 0.00 0.00 82 978.4
20260906015736 81 135 0.0 2.0 0.00 0.00 0.00 81 978.2
20260906014834 81 135 0.0 1.0 0.00 0.00 0.00 81 978.3
20260906013935 81 135 0.0 1.0 0.00 0.00 0.00 80 978.2
20260906013035 81 135 0.0 2.0 0.00 0.00 0.00 80 978.1
20260906012135 82 128 1.0 2.0 0.00 0.00 0.00 78 978.1
20260906011235 83 11 1.0 2.0 0.00 0.00 0.00 76 978.2
20260906010334 83 1 1.0 1.0 0.00 0.00 0.00 75 978.0
20260906005435 84 1 0.0 1.0 0.00 0.00 0.00 74 978.0
20260906004535 84 1 0.0 1.0 0.00 0.00 0.00 71 977.9
20260906003635 85 1 0.0 1.0 0.00 0.00 0.00 70 977.8
20260906002735 86 23 0.0 2.0 0.00 0.00 0.00 66 977.9
20260906001835 87 45 0.0 1.0 0.00 0.00 0.00 63 977.8
20260906000935 88 45 0.0 1.0 0.00 0.00 0.00 62 977.9
20260906000036 90 0 0.0 0.0 0.00 0.00 0.00 58 977.8
20260905232436 94 37 0.0 2.0 0.00 0.00 0.00 51 978.2
20260905230635 95 131 1.0 3.0 0.00 0.00 0.00 47 977.9
20260905224834 95 146 1.0 4.0 0.00 0.00 0.00 45 978.0
20260905223935 96 136 3.0 4.0 0.00 0.00 0.00 47 977.8
20260905223034 96 140 2.0 4.0 0.00 0.00 0.00 46 978.0
20260905222135 97 116 1.0 3.0 0.00 0.00 0.00 44 978.0
20260905221234 97 124 2.0 3.0 0.00 0.00 0.00 43 978.0
20260905220335 97 150 2.0 4.0 0.00 0.00 0.00 40 978.0
20260905215434 97 121 0.0 6.0 0.00 0.00 0.00 43 978.2
20260905213634 98 132 2.0 4.0 0.00 0.00 0.00 44 978.1
20260905212734 97 108 3.0 4.0 0.00 0.00 0.00 43 978.2
20260905211834 97 142 1.0 6.0 0.00 0.00 0.00 45 978.2
20260905210934 97 152 4.0 6.0 0.00 0.00 0.00 48 978.4
20260905210036 97 277 4.0 6.0 0.00 0.00 0.00 47 978.3
20260905204234 96 142 1.0 4.0 0.00 0.00 0.00 46 978.4
20260905203334 97 152 2.0 4.0 0.00 0.00 0.00 42 978.6
20260905202434 98 356 2.0 7.0 0.00 0.00 0.00 43 978.5
20260905201536 98 358 2.0 4.0 0.00 0.00 0.00 43 978.7
20260905200634 97 272 1.0 5.0 0.00 0.00 0.00 42 979.0
20260905195735 96 22 3.0 4.0 0.00 0.00 0.00 50 979.1
20260905194834 96 355 2.0 8.0 0.00 0.00 0.00 49 979.1
20260905193934 97 356 8.0 8.0 0.00 0.00 0.00 41 979.2
20260905193035 97 86 2.0 5.0 0.00 0.00 0.00 41 979.3
20260905192134 97 136 2.0 5.0 0.00 0.00 0.00 42 979.7
20260905191234 97 304 3.0 5.0 0.00 0.00 0.00 42 979.7
20260905190334 97 151 2.0 8.0 0.00 0.00 0.00 43 979.8
20260905185434 96 77 2.0 5.0 0.00 0.00 0.00 50 979.9
20260905184534 96 127 0.0 4.0 0.00 0.00 0.00 47 979.9
20260905183634 97 291 3.0 5.0 0.00 0.00 0.00 43 979.9
20260905181834 97 60 2.0 4.0 0.00 0.00 0.00 43 980.2
20260905180035 96 336 1.0 5.0 0.00 0.00 0.00 45 980.3
20260905175134 97 27 2.0 5.0 0.00 0.00 0.00 47 980.4
20260905174234 96 87 2.0 4.0 0.00 0.00 0.00 50 980.3
20260905173334 96 73 3.0 4.0 0.00 0.00 0.00 50 980.4
20260905172434 96 342 2.0 4.0 0.00 0.00 0.00 50 980.4
20260905171534 96 356 3.0 4.0 0.00 0.00 0.00 50 980.5
20260905165734 95 54 4.0 5.0 0.00 0.00 0.00 52 980.6
20260905164834 95 100 3.0 4.0 0.00 0.00 0.00 52 981.0
20260905163934 94 341 2.0 5.0 0.00 0.00 0.00 52 981.0
20260905162134 94 345 3.0 4.0 0.00 0.00 0.00 51 981.1
20260905160335 94 36 1.0 3.0 0.00 0.00 0.00 51 981.4
20260905155435 94 36 1.0 3.0 0.00 0.00 0.00 51 981.4
20260905154534 93 317 0.0 4.0 0.00 0.00 0.00 52 981.4
20260905153634 93 72 2.0 4.0 0.00 0.00 0.00 53 981.5
20260905152734 92 76 1.0 3.0 0.00 0.00 0.00 55 981.3
20260905151834 92 16 1.0 3.0 0.00 0.00 0.00 57 981.4
20260905150934 91 69 1.0 3.0 0.00 0.00 0.00 57 981.6
20260905150035 90 80 1.0 3.0 0.00 0.00 0.00 59 981.5
20260905145134 90 90 1.0 2.0 0.00 0.00 0.00 58 981.7
20260905144234 89 8 0.0 4.0 0.00 0.00 0.00 58 981.4
20260905143335 90 53 1.0 3.0 0.00 0.00 0.00 59 981.7
20260905142434 89 76 0.0 2.0 0.00 0.00 0.00 61 981.5
20260905141534 88 124 2.0 3.0 0.00 0.00 0.00 64 981.5
20260905135734 87 38 0.0 2.0 0.00 0.00 0.00 73 981.6
20260905134834 85 4 0.0 2.0 0.00 0.00 0.00 79 981.5
20260905133934 83 45 0.0 1.0 0.00 0.00 0.00 91 981.6
20260905133034 80 45 1.0 2.0 0.00 0.00 0.00 91 981.6
20260905132134 79 41 0.0 2.0 0.00 0.00 0.00 93 981.5
20260905131235 78 23 0.0 2.0 0.00 0.00 0.00 95 981.7
20260905130334 76 23 1.0 2.0 0.00 0.00 0.00 96 981.4
20260905125434 75 14 1.0 2.0 0.00 0.00 0.00 97 981.4
20260905124535 74 1 0.0 1.0 0.00 0.00 0.00 97 981.5
20260905123635 74 1 0.0 2.0 0.00 0.00 0.00 97 981.4
20260905122734 74 1 0.0 1.0 0.00 0.00 0.00 97 981.4
20260905121835 73 0 0.0 0.0 0.00 0.00 0.00 95 981.3
20260905120934 73 0 0.0 0.0 0.00 0.00 0.00 95 981.3
20260905120034 72 0 0.0 0.0 0.00 0.00 0.00 94 981.5
20260905115134 72 0 0.0 0.0 0.00 0.00 0.00 94 981.3
20260905114234 72 0 0.0 0.0 0.00 0.00 0.00 94 981.1
20260905113335 72 0 0.0 0.0 0.00 0.00 0.00 94 981.1
20260905112434 72 0 0.0 0.0 0.00 0.00 0.00 94 980.9
20260905111534 72 45 0.0 1.0 0.00 0.00 0.00 94 980.6
20260905110635 72 0 0.0 0.0 0.00 0.00 0.00 94 980.5
20260905105734 72 0 0.0 0.0 0.00 0.00 0.00 94 980.6
20260905104834 72 0 0.0 0.0 0.00 0.00 0.00 94 980.5
20260905103934 72 0 0.0 0.0 0.00 0.00 0.00 94 980.4
20260905103034 72 1 0.0 1.0 0.00 0.00 0.00 94 980.4
20260905102134 72 1 0.0 1.0 0.00 0.00 0.00 94 980.5
20260905100335 72 0 0.0 0.0 0.00 0.00 0.00 94 980.3
20260905095434 72 0 0.0 0.0 0.00 0.00 0.00 94 980.3
20260905094534 72 0 0.0 0.0 0.00 0.00 0.00 94 980.4
20260905093634 72 0 0.0 0.0 0.00 0.00 0.00 94 980.3
20260905092734 72 1 0.0 1.0 0.00 0.00 0.00 94 980.2
20260905091834 72 0 0.0 0.0 0.00 0.00 0.00 94 980.1
20260905090935 72 0 0.0 0.0 0.00 0.00 0.00 93 980.0
20260905090035 72 1 0.0 1.0 0.00 0.00 0.00 94 980.0
20260905084235 72 1 0.0 1.0 0.00 0.00 0.00 93 979.9
20260905083334 72 0 0.0 0.0 0.00 0.00 0.00 93 980.0
20260905081534 72 0 0.0 0.0 0.00 0.00 0.00 93 979.7
20260905075734 72 0 0.0 0.0 0.00 0.00 0.00 93 979.8
20260905074836 72 90 0.0 2.0 0.00 0.00 0.00 93 979.9
20260905073934 72 90 0.0 1.0 0.00 0.00 0.00 93 980.0
20260905073034 72 0 0.0 0.0 0.00 0.00 0.00 93 980.0
20260905072134 72 0 0.0 0.0 0.00 0.00 0.00 93 980.2
20260905071234 72 0 0.0 0.0 0.00 0.00 0.00 93 980.1
20260905070334 73 0 0.0 0.0 0.00 0.00 0.00 93 980.2
20260905065434 72 0 0.0 0.0 0.00 0.00 0.00 93 980.0
20260905064534 72 90 0.0 1.0 0.00 0.00 0.00 92 980.3
20260905063634 73 0 0.0 0.0 0.00 0.00 0.00 92 980.4
20260905062734 73 86 0.0 2.0 0.00 0.00 0.00 92 980.3
20260905061834 73 45 0.0 1.0 0.00 0.00 0.00 92 980.4
20260905060934 73 45 0.0 1.0 0.00 0.00 0.00 92 980.7
20260905060034 73 45 0.0 2.0 0.00 0.00 0.00 94 980.5
20260905055135 74 28 0.0 1.0 0.00 0.00 0.00 94 980.8
20260905051534 74 88 0.0 2.0 0.00 0.00 0.00 93 980.7
20260905050634 74 72 1.0 2.0 0.00 0.00 0.00 93 980.8
20260905045734 74 0 0.0 0.0 0.00 0.00 0.00 93 980.5
20260905044834 74 45 0.0 2.0 0.00 0.00 0.00 93 980.8